Regional Weather Roundup
Issued by NWS Mobile, AL

Home | Current Version | Previous Version | Text Only | Print | Product List | Glossary On
Versions: 1 2 3 4 5 6 7 8 9 10 11 12 13 14 15 16 17 18 19 20 21 22 23 24 25 26 27 28 29 30 31 32 33 34 35 36 37 38 39 40 41 42 43 44 45 46 47 48 49 50
000
ASUS44 KMOB 281710
RWRMOB
REGIONAL WEATHER ROUNDUP
NATIONAL WEATHER SERVICE MOBILE AL
1100 AM CST WED JAN 28 2015

NOTE: "FAIR" INDICATES FEW OR NO CLOUDS BELOW 12,000 FEET WITH NO
      SIGNIFICANT WEATHER AND/OR OBSTRUCTIONS TO VISIBILITY.

  * THESE STATIONS ARE PART OF THE UNIVERSITY OF SOUTH ALABAMA
    MESONET AND ARE NOT UNDER NWS OR FAA QUALITY CONTROL.

ALZ061>064-281800-
COASTAL ALABAMA

CITY           SKY/WX    TMP DP  RH WIND       PRES   REMARKS
MOBILE REG APT SUNNY     56  31  38 VRB6      30.31S
BROOKLEY FIELD SUNNY     54  35  48 VRB5      30.32F
USA CAMPUS*    NOT AVBL
DOG RIVER*     NOT AVBL


CITY           SKY/WX    TMP DP  RH WIND       PRES   REMARKS
MOUNT VERNON*  NOT AVBL
SARALAND*      NOT AVBL
BAY MINETTE*   NOT AVBL
LOXLEY*        NOT AVBL
ROBERTSDALE*   NOT AVBL
FAIRHOPE*        N/A    N/A N/A N/A N6        30.29F
ELBERTA*         N/A     54  34  47 NE6       30.28F
FOLEY*         NOT AVBL
GRAND BAY*     NOT AVBL
DAUPHIN ISLND* NOT AVBL
BON SCOUR NWR* NOT AVBL
GULF SHORES    SUNNY     55  33  42 NE6       30.28F

$$

ALZ051>060-281800-
INTERIOR SOUTHWEST AND SOUTH CENTRAL ALABAMA

CITY           SKY/WX    TMP DP  RH WIND       PRES   REMARKS
GREENVILLE     SUNNY     51  30  44 NE7       30.28F
EVERGREEN      SUNNY     51  32  48 CALM      30.30F
CASTLEBERRY*   NOT AVBL
ATMORE*          N/A    N/A N/A N/A N7        30.31S
DIXIE*           N/A    N/A N/A N/A CALM      30.26F
ANDALUSIA/OPP  SUNNY     54  31  41 NE6       30.28F
ANDALUSIA*       N/A     48  36  61 E8        30.27F
FLORALA APT    NOT AVBL
FLORALA*         N/A     48  34  57 NE3       30.26F

$$

FLZ001>006-281800-
WESTERN FLORIDA PANHANDLE

CITY           SKY/WX    TMP DP  RH WIND       PRES   REMARKS
PENSACOLA      SUNNY     54  30  40 NE6       30.28F
NAS PENSACOLA  NOT AVBL
MILTON         NOT AVBL
WHTNG S FIELD  SUNNY     57  33  40 CALM      30.29S


CITY           SKY/WX    TMP DP  RH WIND       PRES   REMARKS
WALNUT HILL*   NOT AVBL
JAY*           NOT AVBL
DUKE FIELD     SUNNY     52  33  48 N7        30.28F
CRESTVIEW      SUNNY     64  33  31 VRB5      30.30F
VALPARAISO     SUNNY     54  32  42 N5        30.28F
DESTIN         SUNNY     53  35  50 E5        30.29F

$$

MSZ076-079-281800-
INTERIOR SOUTHEAST MISSISSIPPI

CITY           SKY/WX    TMP DP  RH WIND       PRES   REMARKS
LEAKESVILLE*   NOT AVBL
AGRICOLA*      NOT AVBL

$$

MARINE OBSERVATIONS

STATION/POSITION TIME  TEMP    WIND        PRES    WAVE
                       AIR SEA DIR/SP/G            HT/PER
                 (UTC) (F)     (DEG/KT/KT) (MB)    (FT/S)
PASCAGOULA       1700   55     360/  7/  9 1026.0R
PETIT BOIS ISLND 1700   52      60/ 10/ 13 1026.6R
GRAND BAY        1600   49      70/  9     1026.0S
KATRINA CUT      1600   50      60/ 13     1026.8S
CEDAR POINT      1600   47      50/  8     1026.4S
E DAUPHIN ISLAND 1600   48      40/  8/  9 1025.8F
MIDDLE BAY LIGHT 1600   51     360/  7     1025.4F
USCG MOBILE BAY  1700   52 53   40/  5/  7 1025.2R
STATE DOCKS      1700   54 50              1026.0R
MEAHER PARK      1600   53     360/  5     1026.1F
WEEKS BAY        1600   51                   N/A
FORT MORGAN      1700   50      70/  8/  9 1025.5R
12 S ORANGE BCH  1700   52 62   60/ 12/ 16 1025.2F   2/ 4
PENSACOLA BAY    1700   56 56   CALM  /  3 1025.9F
64 S DAUPHIN ISL 1605   58 67   60/ 14/ 16 1025.8R   3/ 5

$$

SELECTED LOCATIONS ACROSS THE REGION

CITY           SKY/WX    TMP DP  RH WIND       PRES   REMARKS
NEW ORLEANS    SUNNY     60  39  45 E9        30.29F
GULFPORT       SUNNY     58  33  39 NE8       30.30S
PASCAGOULA AP  SUNNY     58  33  39 VRB6      30.31R
PASCAGOULA*    NOT AVBL
HATTIESBURG    SUNNY     55  33  43 E7        30.32F
LAUREL         SUNNY     54  32  43 E7        30.32F
MERIDIAN       SUNNY     53  27  36 NE7       30.32S
JACKSON        SUNNY     56  32  40 S6        30.30S
MONTGOMERY     SUNNY     47  30  51 CALM      30.32F
TROY           SUNNY     50  30  46 NE7       30.30F
KINSTON*       NOT AVBL
GENEVA*        NOT AVBL
ASHFORD*         N/A     48  36  61 E8        30.27F
DOTHAN         SUNNY     47  31  53 CALM      30.32F
PANAMA CITY    SUNNY     51  34  52 N10       30.27F

$$



USA.gov is the U.S. government's official web portal to all federal, state and local government web resources and services.